TimeCDT,TemperatureF,Dew PointF,Humidity,Sea Level PressureIn,VisibilityMPH,Wind Direction,Wind SpeedMPH,Gust SpeedMPH,PrecipitationIn,Events,Conditions,WindDirDegrees,DateUTC
12:53 AM,64.0,59.0,84,30.02,10.0,ESE,3.5,-,N/A,,Clear,120,2013-09-03 05:53:00
1:53 AM,63.0,59.0,87,30.03,10.0,SSE,3.5,-,N/A,,Clear,150,2013-09-03 06:53:00
2:53 AM,61.0,57.9,90,30.03,10.0,Calm,Calm,-,N/A,,Clear,0,2013-09-03 07:53:00
3:53 AM,59.0,57.0,93,30.04,10.0,Calm,Calm,-,N/A,,Clear,0,2013-09-03 08:53:00
4:53 AM,60.1,57.9,93,30.03,10.0,Calm,Calm,-,N/A,,Clear,0,2013-09-03 09:53:00
5:53 AM,57.9,57.0,97,30.04,7.0,Calm,Calm,-,N/A,,Clear,0,2013-09-03 10:53:00
6:53 AM,57.0,55.9,96,30.04,7.0,ESE,3.5,-,N/A,,Clear,120,2013-09-03 11:53:00
7:53 AM,60.1,57.9,93,30.05,9.0,ESE,3.5,-,N/A,,Clear,120,2013-09-03 12:53:00
8:53 AM,69.1,59.0,70,30.04,10.0,SSE,5.8,-,N/A,,Clear,160,2013-09-03 13:53:00
9:53 AM,75.0,59.0,57,30.03,10.0,South,10.4,-,N/A,,Clear,190,2013-09-03 14:53:00
10:53 AM,80.1,59.0,48,30.04,10.0,South,12.7,-,N/A,,Clear,190,2013-09-03 15:53:00
11:53 AM,84.0,55.0,37,30.02,10.0,South,18.4,23.0,N/A,,Clear,190,2013-09-03 16:53:00
12:53 PM,86.0,54.0,33,30.01,10.0,SSW,15.0,24.2,N/A,,Clear,200,2013-09-03 17:53:00
1:53 PM,88.0,55.9,34,29.99,10.0,SSW,16.1,-,N/A,,Clear,200,2013-09-03 18:53:00
2:53 PM,87.1,55.9,35,29.99,10.0,South,15.0,21.9,N/A,,Clear,180,2013-09-03 19:53:00
3:53 PM,88.0,57.9,36,29.96,10.0,SSE,17.3,23.0,N/A,,Clear,160,2013-09-03 20:53:00
4:53 PM,87.1,57.9,37,29.96,10.0,South,17.3,21.9,N/A,,Clear,170,2013-09-03 21:53:00
5:53 PM,87.1,59.0,39,29.96,10.0,South,13.8,-,N/A,,Clear,170,2013-09-03 22:53:00
6:53 PM,84.0,61.0,46,29.97,10.0,SSE,13.8,-,N/A,,Clear,160,2013-09-03 23:53:00
7:53 PM,81.0,61.0,50,29.97,10.0,SE,9.2,-,N/A,,Clear,140,2013-09-04 00:53:00
8:53 PM,77.0,62.1,60,29.98,10.0,SE,9.2,-,N/A,,Clear,130,2013-09-04 01:53:00
9:53 PM,75.0,61.0,62,29.99,10.0,SE,9.2,-,N/A,,Clear,140,2013-09-04 02:53:00
10:53 PM,73.0,61.0,66,29.99,10.0,South,6.9,-,N/A,,Clear,170,2013-09-04 03:53:00
11:53 PM,72.0,59.0,64,29.99,10.0,SSE,8.1,-,N/A,,Partly Cloudy,160,2013-09-04 04:53:00